Regional Weather Roundup
Issued by NWS Kansas City/Pleasant Hill, MO

Home | Current Version | Previous Version | Graphics & Text | Print | Product List | Glossary Off
Versions: 1 2 3 4 5 6 7 8 9 10 11 12 13 14 15 16 17 18 19 20 21 22 23 24 25 26 27 28 29 30 31 32 33 34 35 36 37 38 39 40 41 42 43 44 45 46 47 48 49 50

000
ASUS43 KEAX 291910
RWREAX

WEATHER ROUNDUP FOR EASTERN KANSAS AND NORTHWEST MISSOURI
NATIONAL WEATHER SERVICE KANSAS CITY/PLEASANT HILL MO
200 PM CDT WED JUL 29 2015

KSZ040-057-103>105-MOZ028-029-037-043-292000-
...KANSAS CITY METROPOLITAN AREA...

CITY           SKY/WX    TMP DP  RH WIND       PRES   REMARKS
K.C. INTL      PTSUNNY   83  68  60 N10       30.16S
K.C. DOWNTOWN  CLOUDY    86  66  51 NE9       30.14S
LEES SUMMIT    SUNNY     83  67  58 N8        30.15F
OLATHE - IXD   MOSUNNY   84  71  65 NE9       30.15F
OLATHE - OJC   MOSUNNY   83  68  60 NE13      30.14F
LAWRENCE       CLOUDY    82  71  69 N3        30.15S

$$

MOZ001>008-011>017-020>025-030>033-038>040-044>046-053-054-292000-
...NORTHERN AND CENTRAL MISSOURI...

CITY           SKY/WX    TMP DP  RH WIND       PRES   REMARKS
ST. JOSEPH     MOSUNNY   83  65  54 NE6       30.15S
MOSBY          PTCLDY    82  64  54 NE6       30.15R
WARRENSBURG    MOSUNNY   82  66  57 N8        30.13F
WHITEMAN AFB   MOSUNNY   86  68  54 NE7       30.13R
CLINTON          N/A     90  72  55 NE9       30.12S HX  96
SEDALIA        MOSUNNY   86  66  51 N12       30.14R
WARSAW         NOT AVBL
CHILLICOTHE      N/A     84  66  54 VRB6      30.15R
KIRKSVILLE     MOSUNNY   83  63  50 N7        30.15R

$$

MOZ041-047>049-056>058-063>065-088>090-097-292000-
...EASTERN AND SOUTHERN MISSOURI...

CITY           SKY/WX    TMP DP  RH WIND       PRES   REMARKS
ST. LOUIS INTL PTSUNNY   91  73  55 N8G17     30.05S HX  99
SPIRIT OF STL  PTSUNNY   87  73  62 VRB7      30.05R HX  94
COLUMBIA       SUNNY     85  66  53 N10G20    30.11S
JEFFERSON CITY SUNNY     85  65  51 N10       30.08F
ROLLA          PTSUNNY   84  69  60 N9        30.09F
OSAGE BEACH    MOSUNNY   84  70  61 NE8       30.10S
SPRINGFIELD    SUNNY     92  68  45 CALM      30.08S HX  96
BRANSON        MOSUNNY   91  72  52 SW10      30.10F HX  98
JOPLIN         SUNNY     95  71  45 VRB6      30.07S HX 102
WEST PLAINS    MOSUNNY   93  73  52 VRB3      30.09R HX 102

$$

IAZ060-094-KSZ022-034>040-054-083-096-NEZ052-066-093-292000-
...KANSAS...SOUTHEAST NEBRASKA AND IOWA...

CITY           SKY/WX    TMP DP  RH WIND       PRES   REMARKS
TOPEKA         CLOUDY    81  69  67 NE6       30.14F
MANHATTAN      CLOUDY    81  72  74 NE12      30.14S
EMPORIA        PTSUNNY   79  69  71 NE10      30.14F
CHANUTE        SUNNY     91  74  57 N12       30.10S HX 100
WICHITA        CLOUDY    79  72  79 NE10      30.11F
OMAHA          MOSUNNY   85  52  32 W10       30.16S
LINCOLN        MOSUNNY   86  50  28 N12       30.18F
FALLS CITY     PTSUNNY   82  65  56 NE7       30.15F
LAMONI           N/A    N/A N/A N/A MISG      30.16R
DES MOINES     PTSUNNY   85  53  33 NW12      30.11F

$$




USA.gov is the U.S. government's official web portal to all federal, state and local government web resources and services.